Home > Weather > Holon > Past weeks

Flag for Israel Past Weather in Holon, Israel — Yesterday and Last 2 Weeks

Now
81 °F

Sunny.


Feels Like: 85 °F
Forecast: 74 / 87 °F
Wind: 7 mph from Northwest

Location: Dov Airport

Current Time: Jun 30, 2016 at 8:42:09 PM

Latest Report: Jun 30, 2016 at 7:50 PM


Visibility: 10 mi

Pressure: 29.86 "Hg

Humidity: 74%

Dew Point: 72 °F

Location of HolonLocation

Past Weather in Holon — Graph

°F

Holon Temperature Yesterday

Maximum temperature yesterday: 86 °F (at 12:50 PM)
Minimum temperature yesterday: 79 °F (at 6:50 AM)
Average temperature yesterday: 83 °F

High & Low Weather Summary for the Past Weeks

 TemperatureHumidityPressure
High86 °F (Jun 20, 1:50 PM)94% (Jun 20, 5:50 AM)29.89 "Hg (Jun 20, 5:50 AM)
Low72 °F (Jun 17, 5:50 AM)59% (Jun 28, 1:50 PM)29.68 "Hg (Jun 24, 4:50 PM)
Average81 °F76%29.78 "Hg
* Reported Jun 15 6:50 PM — Jun 30 6:50 PM, Holon, Weather by CustomWeather, © 2016

Note: Actual official high and low records may vary slightly from our data, if they occured in-between our weather recording intervals... More about our weather records

Advertising

Holon Weather History for the Previous 24 Hours

Scroll right to see more
 ConditionsComfort  
Time TempWeatherWind HumidityBarometerVisibility
6:50 PM
Thu, Jun 30
82 °FPassing clouds.8 mph74%29.83 "HgN/A
5:50 PM82 °FPassing clouds.9 mph74%29.83 "HgN/A
4:50 PM84 °FPassing clouds.9 mph70%29.86 "HgN/A
3:50 PM84 °FPassing clouds.10 mph66%29.86 "HgN/A
2:50 PM86 °FScattered clouds.12 mph66%29.86 "HgN/A
1:50 PM86 °FScattered clouds.12 mph66%29.86 "HgN/A
12:50 PM86 °FScattered clouds.10 mph66%29.89 "HgN/A
11:50 AM86 °FPassing clouds.10 mph66%29.89 "HgN/A
10:50 AM84 °FPassing clouds.9 mph66%29.89 "HgN/A
9:50 AM84 °FPassing clouds.7 mph70%29.86 "HgN/A
8:50 AM82 °FScattered clouds.7 mph74%29.86 "HgN/A
7:50 AM79 °FScattered clouds.6 mph84%29.86 "HgN/A
6:50 AM79 °FScattered clouds.2 mph84%29.83 "HgN/A
5:50 AM75 °FPassing clouds.5 mph89%29.83 "HgN/A
10:50 PM
Wed, Jun 29
81 °FPassing clouds.5 mph79%29.83 "HgN/A
9:50 PM81 °FPassing clouds.2 mph79%29.83 "HgN/A
8:50 PM81 °FScattered clouds.3 mph79%29.80 "HgN/A
Weather by CustomWeather, © 2016

See weather overviewHow to use our weather pages